Regional Weather Roundup
Issued by NWS

Home | Current Version | Previous Version | Text Only | Print | Product List | Glossary Off
Versions: 1 2 3 4 5 6 7 8 9 10 11 12 13 14 15 16 17 18 19 20 21 22 23 24 25 26 27 28 29 30 31 32 33 34 35 36 37 38 39 40 41 42 43 44 45 46 47 48 49 50

000
ASUS43 KIND 030109
RWRIN

WEATHER ROUNDUP FOR INDIANA
NATIONAL WEATHER SERVICE INDIANAPOLIS IN
900 PM EDT MON MAY 02 2016

NOTE: "FAIR" INDICATES FEW OR NO CLOUDS BELOW 12,000 FEET WITH NO
SIGNIFICANT WEATHER AND/OR OBSTRUCTIONS TO VISIBILITY.

* - STATION DOES NOT REPORT WEATHER SUCH AS PRECIPITATION OR FOG.

+ - STATION NOT QUALITY CONTROLLED BY THE NATIONAL WEATHER SERVICE.
    USE DATA WITH CAUTION...ESPECIALLY DEWPOINT AND RELATIVE
    HUMIDITY OBSERVATIONS.

INZ001>003-010>013-019-020-030200-
NORTHWEST INDIANA

CITY           SKY/WX    TMP DP  RH WIND       PRES   REMARKS
GARY /AIRPORT/ MOCLDY    48  43  81 N5        30.03S
KNOX *+        CLOUDY    48  36  61 N7        30.00S
LA PORTE +     CLOUDY    50  41  70 N6        30.01S
MICHIGAN CITY+ CLOUDY    46  39  76 N3        30.02S
MONTICELLO +   CLOUDY    51  45  81 N6        29.98S
VALPARAISO     CLOUDY    48  38  68 N3        30.01S

$$

LMZ046-743>745-030200-
SOUTHERN LAKE MICHIGAN

STATION/POSITION TIME  TEMP    WIND        PRES    WAVE
                       AIR SEA DIR/SP/G            HT
                 (UTC) (F)     (DEG/KT/KT) (MB)    (FT)
BURNS HARBOR     0027   47      30/  7/  9 1017.3R
MICHIGAN CITY    0000   46      10/  7/  7   N/A

$$

INZ004-005-014>016-021>024-030200-
NORTH CENTRAL INDIANA

CITY           SKY/WX    TMP DP  RH WIND       PRES   REMARKS
ELKHART        CLOUDY    50  48  93 CALM      30.01R
GOSHEN         CLOUDY    50  46  86 NE6       29.99S
LOGANSPORT +   CLOUDY    50  48  93 N5        29.99S FOG
ROCHESTER +    CLOUDY    52  50  93 CALM      30.00S
SOUTH BEND     CLOUDY    50  42  74 N5        30.01S
WARSAW +       CLOUDY    50  46  87 N3        30.00R

$$

INZ006>009-017-018-025>027-030200-
NORTHEAST INDIANA

CITY           SKY/WX    TMP DP  RH WIND       PRES   REMARKS
ANGOLA *+      CLOUDY    48  39  71 NE3       29.99S
AUBURN +       CLOUDY    50  46  87 NE3       30.00S
FORT WAYNE     DRIZZLE   50  48  93 NE7       29.99S FOG
HUNTINGTON +   CLOUDY   N/A N/A N/A NE6       29.98R

$$

INZ028-029-035-036-043>045-051>053-030200-
WEST CENTRAL INDIANA

CITY           SKY/WX    TMP DP  RH WIND       PRES   REMARKS
LAFAYETTE      CLOUDY    51  48  89 NE10      29.98S
TERRE HAUTE    CLOUDY    54  49  83 N5        29.98R

$$

INZ030>032-037>040-046>048-054>057-064-065-030200-
CENTRAL INDIANA

CITY           SKY/WX    TMP DP  RH WIND       PRES   REMARKS
CP ATTERBURY + CLOUDY    54  50  87 NW5       29.96S
COLUMBUS       CLOUDY    55  54  94 NW8       29.95S
FRANKFORT +      N/A     51  51 100 NE8       29.99S
GREENWOOD *+   CLOUDY    55  50  82 N7        29.96R
INDIANAPOLIS   CLOUDY    54  49  83 N14       29.94R
-EAGLE CREEK   LGT RAIN  53  51  93 N7        29.95S
KOKOMO *+      CLOUDY    52  46  82 N8        29.97S
MARION +       CLOUDY    50  49  95 NE9       29.97F
SHELBYVILLE    CLOUDY    58  50  75 NW6       29.94R
ZIONSVILLE +   DRIZZLE   51  50  97 N9        29.97R

$$

INZ033-034-041-042-049-050-058-059-030200-
EAST CENTRAL INDIANA

CITY           SKY/WX    TMP DP  RH WIND       PRES   REMARKS
MUNCIE         CLOUDY    54  49  83 NE8       29.95S

$$

INZ060-061-067>069-081>083-085>088-030200-
SOUTHWEST INDIANA

CITY           SKY/WX    TMP DP  RH WIND       PRES   REMARKS
EVANSVILLE     CLOUDY    57  48  72 NW5       29.97S
HUNTINGBURG *+ CLOUDY    57  46  67 N7        29.97S
WASHINGTON +   CLOUDY    55  51  88 N5        29.97R

$$

INZ062-063-066-070>080-084-089>092-030200-
SOUTH CENTRAL AND SOUTHEAST INDIANA

CITY           SKY/WX    TMP DP  RH WIND       PRES   REMARKS
BLOOMINGTON    LGT RAIN  54  48  80 NW6       29.96S
MADISON *+     CLOUDY    59  48  67 CALM      29.96S
NORTH VERNON + CLOUDY    57  55  94 CALM      29.95

$$




USA.gov is the U.S. government's official web portal to all federal, state and local government web resources and services.